Zurück zum Katalog

STARLINK-5383

AktivKommunikationVLEO
NORAD 54827·PAYLOAD·🇺🇸 United States

Gestartet Dec 28, 2022 von Cape Canaveral Space Force Station

Loading…

Nächste Überflüge (nächste 24 Stunden)

TLE

AktuellSource: CelesTrak SupGP

Epoche: Sep 14, 2026, 20:53 UTC

1 54827C 22177H   26257.87062500 -.00031387  00000+0 -11370-2 0  2579
2 54827  43.0011 147.8357 0000991 251.8626 127.3587 15.27588741    13

Verfolge STARLINK-5383 in Echtzeit mit AllMySat

Download on the App Store